Year,Month,Day,Hour,Minute,Value (Times are PST for temperature in C)
2018,09,30,00,00,14.10
2018,09,30,00,01,14.10
2018,09,30,00,02,14.00
2018,09,30,00,03,14.00
2018,09,30,00,04,14.00
2018,09,30,00,05,13.90
2018,09,30,00,06,13.90
2018,09,30,00,07,13.90
2018,09,30,00,08,13.90
2018,09,30,00,09,13.90
2018,09,30,00,10,13.80
2018,09,30,00,11,13.80
2018,09,30,00,12,13.80
2018,09,30,00,13,13.80
2018,09,30,00,14,13.70
2018,09,30,00,15,13.70
2018,09,30,00,16,13.70
2018,09,30,00,17,13.70
2018,09,30,00,18,13.70
2018,09,30,00,19,13.70
2018,09,30,00,20,13.70
2018,09,30,00,21,13.70
2018,09,30,00,22,13.60
2018,09,30,00,23,13.60
2018,09,30,00,24,13.60
2018,09,30,00,25,13.60
2018,09,30,00,26,13.60
2018,09,30,00,27,13.60
2018,09,30,00,28,13.60
2018,09,30,00,29,13.60
2018,09,30,00,30,13.60
2018,09,30,00,31,13.60
2018,09,30,00,32,13.60
2018,09,30,00,33,13.60
2018,09,30,00,34,13.60
2018,09,30,00,35,13.50
2018,09,30,00,36,13.50
2018,09,30,00,37,13.50
2018,09,30,00,38,13.50
2018,09,30,00,39,13.50
2018,09,30,00,40,13.50
2018,09,30,00,41,13.50
2018,09,30,00,42,13.40
2018,09,30,00,43,13.40
2018,09,30,00,44,13.40
2018,09,30,00,45,13.40
2018,09,30,00,46,13.30
2018,09,30,00,47,13.30
2018,09,30,00,48,13.30
2018,09,30,00,49,13.30
2018,09,30,00,50,13.30
2018,09,30,00,51,13.30
2018,09,30,00,52,13.30
2018,09,30,00,53,13.30
2018,09,30,00,54,13.30
2018,09,30,00,55,13.30
2018,09,30,00,56,13.30
2018,09,30,00,57,13.30
2018,09,30,00,58,13.30
2018,09,30,00,59,13.30
2018,09,30,01,00,13.30
2018,09,30,01,01,13.20
2018,09,30,01,02,13.20
2018,09,30,01,03,13.20
2018,09,30,01,04,13.20
2018,09,30,01,05,13.10
2018,09,30,01,06,13.10
2018,09,30,01,07,13.10
2018,09,30,01,08,13.10
2018,09,30,01,09,13.10
2018,09,30,01,10,13.10
2018,09,30,01,11,13.00
2018,09,30,01,12,13.10
2018,09,30,01,13,13.10
2018,09,30,01,14,13.10
2018,09,30,01,15,13.10
2018,09,30,01,16,13.10
2018,09,30,01,17,13.10
2018,09,30,01,18,13.10
2018,09,30,01,19,13.10
2018,09,30,01,20,13.10
2018,09,30,01,21,13.10
2018,09,30,01,22,13.10
2018,09,30,01,23,13.10
2018,09,30,01,24,13.10
2018,09,30,01,25,13.10
2018,09,30,01,26,13.10
2018,09,30,01,27,13.10
2018,09,30,01,28,13.00
2018,09,30,01,29,13.00
2018,09,30,01,30,13.00
2018,09,30,01,31,13.00
2018,09,30,01,32,13.00
2018,09,30,01,33,13.00
2018,09,30,01,34,13.00
2018,09,30,01,35,13.00
2018,09,30,01,36,13.00
2018,09,30,01,37,13.00
2018,09,30,01,38,13.00
2018,09,30,01,39,12.90
2018,09,30,01,40,12.90
2018,09,30,01,41,12.90
2018,09,30,01,42,12.90
2018,09,30,01,43,12.90
2018,09,30,01,44,12.90
2018,09,30,01,45,12.90
2018,09,30,01,46,12.90
2018,09,30,01,47,12.90
2018,09,30,01,48,12.90
2018,09,30,01,49,12.90
2018,09,30,01,50,12.90
2018,09,30,01,51,12.90
2018,09,30,01,52,12.90
2018,09,30,01,53,12.90
2018,09,30,01,54,12.90
2018,09,30,01,55,12.90
2018,09,30,01,56,12.90
2018,09,30,01,57,12.90
2018,09,30,01,58,12.80
2018,09,30,01,59,12.80
2018,09,30,02,00,12.80
2018,09,30,02,01,12.80
2018,09,30,02,02,12.80
2018,09,30,02,03,12.80
2018,09,30,02,04,12.80
2018,09,30,02,05,12.80
2018,09,30,02,06,12.80
2018,09,30,02,07,12.80
2018,09,30,02,08,12.80
2018,09,30,02,09,12.80
2018,09,30,02,10,12.90
2018,09,30,02,11,12.90
2018,09,30,02,12,12.90
2018,09,30,02,13,12.90
2018,09,30,02,14,12.80
2018,09,30,02,15,12.80
2018,09,30,02,16,12.80
2018,09,30,02,17,12.80
2018,09,30,02,18,12.80
2018,09,30,02,19,12.80
2018,09,30,02,20,12.80
2018,09,30,02,21,12.80
2018,09,30,02,22,12.80
2018,09,30,02,23,12.80
2018,09,30,02,24,12.80
2018,09,30,02,25,12.80
2018,09,30,02,26,12.80
2018,09,30,02,27,12.80
2018,09,30,02,28,12.80
2018,09,30,02,29,12.80
2018,09,30,02,30,12.80
2018,09,30,02,31,12.80
2018,09,30,02,32,12.80
2018,09,30,02,33,12.80
2018,09,30,02,34,12.80
2018,09,30,02,35,12.80
2018,09,30,02,36,12.70
2018,09,30,02,37,12.70
2018,09,30,02,38,12.70
2018,09,30,02,39,12.70
2018,09,30,02,40,12.70
2018,09,30,02,41,12.70
2018,09,30,02,42,12.70
2018,09,30,02,43,12.70
2018,09,30,02,44,12.70
2018,09,30,02,45,12.70
2018,09,30,02,46,12.70
2018,09,30,02,47,12.70
2018,09,30,02,48,12.70
2018,09,30,02,49,12.70
2018,09,30,02,50,12.70
2018,09,30,02,51,12.70
2018,09,30,02,52,12.70
2018,09,30,02,53,12.70
2018,09,30,02,54,12.70
2018,09,30,02,55,12.70
2018,09,30,02,56,12.70
2018,09,30,02,57,12.70
2018,09,30,02,58,12.70
2018,09,30,02,59,12.70
2018,09,30,03,00,12.70
2018,09,30,03,01,12.70
2018,09,30,03,02,12.70
2018,09,30,03,03,12.70
2018,09,30,03,04,12.70
2018,09,30,03,05,12.70
2018,09,30,03,06,12.70
2018,09,30,03,07,12.70
2018,09,30,03,08,12.70
2018,09,30,03,09,12.70
2018,09,30,03,10,12.70
2018,09,30,03,11,12.70
2018,09,30,03,12,12.60
2018,09,30,03,13,12.60
2018,09,30,03,14,12.60
2018,09,30,03,15,12.60
2018,09,30,03,16,12.60
2018,09,30,03,17,12.60
2018,09,30,03,18,12.60
2018,09,30,03,19,12.60
2018,09,30,03,20,12.50
2018,09,30,03,21,12.50
2018,09,30,03,22,12.50
2018,09,30,03,23,12.50
2018,09,30,03,24,12.50
2018,09,30,03,25,12.50
2018,09,30,03,26,12.50
2018,09,30,03,27,12.50
2018,09,30,03,28,12.50
2018,09,30,03,29,12.50
2018,09,30,03,30,12.50
2018,09,30,03,31,12.50
2018,09,30,03,32,12.50
2018,09,30,03,33,12.50
2018,09,30,03,34,12.50
2018,09,30,03,35,12.50
2018,09,30,03,36,12.40
2018,09,30,03,37,12.40
2018,09,30,03,38,12.40
2018,09,30,03,39,12.40
2018,09,30,03,40,12.40
2018,09,30,03,41,12.40
2018,09,30,03,42,12.40
2018,09,30,03,43,12.40
2018,09,30,03,44,12.40
2018,09,30,03,45,12.40
2018,09,30,03,46,12.40
2018,09,30,03,47,12.40
2018,09,30,03,48,12.30
2018,09,30,03,49,12.30
2018,09,30,03,50,12.30
2018,09,30,03,51,12.30
2018,09,30,03,52,12.30
2018,09,30,03,53,12.30
2018,09,30,03,54,12.30
2018,09,30,03,55,12.30
2018,09,30,03,56,12.30
2018,09,30,03,57,12.30
2018,09,30,03,58,12.30
2018,09,30,03,59,12.30
2018,09,30,04,00,12.30
2018,09,30,04,01,12.30
2018,09,30,04,02,12.30
2018,09,30,04,03,12.30
2018,09,30,04,04,12.30
2018,09,30,04,05,12.30
2018,09,30,04,06,12.30
2018,09,30,04,07,12.30
2018,09,30,04,08,12.30
2018,09,30,04,09,12.30
2018,09,30,04,10,12.30
2018,09,30,04,11,12.30
2018,09,30,04,12,12.20
2018,09,30,04,13,12.20
2018,09,30,04,14,12.20
2018,09,30,04,15,12.20
2018,09,30,04,16,12.20
2018,09,30,04,17,12.20
2018,09,30,04,18,12.20
2018,09,30,04,19,12.20
2018,09,30,04,20,12.20
2018,09,30,04,21,12.20
2018,09,30,04,22,12.20
2018,09,30,04,23,12.20
2018,09,30,04,24,12.20
2018,09,30,04,25,12.20
2018,09,30,04,26,12.20
2018,09,30,04,27,12.20
2018,09,30,04,28,12.20
2018,09,30,04,29,12.20
2018,09,30,04,30,12.20
2018,09,30,04,31,12.20
2018,09,30,04,32,12.20
2018,09,30,04,33,12.10
2018,09,30,04,34,12.10
2018,09,30,04,35,12.10
2018,09,30,04,36,12.10
2018,09,30,04,37,12.10
2018,09,30,04,38,12.10
2018,09,30,04,39,12.10
2018,09,30,04,40,12.10
2018,09,30,04,41,12.10
2018,09,30,04,42,12.10
2018,09,30,04,43,12.10
2018,09,30,04,44,12.10
2018,09,30,04,45,12.10
2018,09,30,04,46,12.10
2018,09,30,04,47,12.10
2018,09,30,04,48,12.20
2018,09,30,04,49,12.10
2018,09,30,04,50,12.10
2018,09,30,04,51,12.20
2018,09,30,04,52,12.10
2018,09,30,04,53,12.10
2018,09,30,04,54,12.10
2018,09,30,04,55,12.10
2018,09,30,04,56,12.20
2018,09,30,04,57,12.20
2018,09,30,04,58,12.20
2018,09,30,04,59,12.20
2018,09,30,05,00,12.20
2018,09,30,05,01,12.20
2018,09,30,05,02,12.20
2018,09,30,05,03,12.20
2018,09,30,05,04,12.20
2018,09,30,05,05,12.20
2018,09,30,05,06,12.20
2018,09,30,05,07,12.20
2018,09,30,05,08,12.30
2018,09,30,05,09,12.30
2018,09,30,05,10,12.30
2018,09,30,05,11,12.30
2018,09,30,05,12,12.30
2018,09,30,05,13,12.30
2018,09,30,05,14,12.30
2018,09,30,05,15,12.30
2018,09,30,05,16,12.30
2018,09,30,05,17,12.20
2018,09,30,05,18,12.20
2018,09,30,05,19,12.20
2018,09,30,05,20,12.20
2018,09,30,05,21,12.20
2018,09,30,05,22,12.20
2018,09,30,05,23,12.20
2018,09,30,05,24,12.20
2018,09,30,05,25,12.20
2018,09,30,05,26,12.20
2018,09,30,05,27,12.10
2018,09,30,05,28,12.10
2018,09,30,05,29,12.10
2018,09,30,05,30,12.20
2018,09,30,05,31,12.20
2018,09,30,05,32,12.20
2018,09,30,05,33,12.20
2018,09,30,05,34,12.20
2018,09,30,05,35,12.20
2018,09,30,05,36,12.20
2018,09,30,05,37,12.10
2018,09,30,05,38,12.10
2018,09,30,05,39,12.10
2018,09,30,05,40,12.10
2018,09,30,05,41,12.10
2018,09,30,05,42,12.10
2018,09,30,05,43,12.10
2018,09,30,05,44,12.10
2018,09,30,05,45,12.10
2018,09,30,05,46,12.10
2018,09,30,05,47,12.10
2018,09,30,05,48,12.10
2018,09,30,05,49,12.10
2018,09,30,05,50,12.10
2018,09,30,05,51,12.10
2018,09,30,05,52,12.10
2018,09,30,05,53,12.10
2018,09,30,05,54,12.10
2018,09,30,05,55,12.10
2018,09,30,05,56,12.10
2018,09,30,05,57,12.10
2018,09,30,05,58,12.10
2018,09,30,05,59,12.10
2018,09,30,06,00,12.10
2018,09,30,06,01,12.10
2018,09,30,06,02,12.10
2018,09,30,06,03,12.10
2018,09,30,06,04,12.10
2018,09,30,06,05,12.10
2018,09,30,06,06,12.10
2018,09,30,06,07,12.10
2018,09,30,06,08,12.10
2018,09,30,06,09,12.10
2018,09,30,06,10,12.10
2018,09,30,06,11,12.10
2018,09,30,06,12,12.10
2018,09,30,06,13,12.10
2018,09,30,06,14,12.10
2018,09,30,06,15,12.10
2018,09,30,06,16,12.10
2018,09,30,06,17,12.10
2018,09,30,06,18,12.10
2018,09,30,06,19,12.10
2018,09,30,06,20,12.00
2018,09,30,06,21,12.00
2018,09,30,06,22,12.00
2018,09,30,06,23,12.00
2018,09,30,06,24,12.00
2018,09,30,06,25,12.00
2018,09,30,06,26,12.00
2018,09,30,06,27,12.10
2018,09,30,06,28,12.10
2018,09,30,06,29,12.10
2018,09,30,06,30,12.10
2018,09,30,06,31,12.10
2018,09,30,06,32,12.10
2018,09,30,06,33,12.10
2018,09,30,06,34,12.10
2018,09,30,06,35,12.10
2018,09,30,06,36,12.10
2018,09,30,06,37,12.20
2018,09,30,06,38,12.20
2018,09,30,06,39,12.20
2018,09,30,06,40,12.20
2018,09,30,06,41,12.20
2018,09,30,06,42,12.20
2018,09,30,06,43,12.10
2018,09,30,06,44,12.10
2018,09,30,06,45,12.10
2018,09,30,06,46,12.10
2018,09,30,06,47,12.10
2018,09,30,06,48,12.00
2018,09,30,06,49,12.00
2018,09,30,06,50,12.00
2018,09,30,06,51,12.00
2018,09,30,06,52,12.00
2018,09,30,06,53,12.00
2018,09,30,06,54,12.00
2018,09,30,06,55,12.00
2018,09,30,06,56,12.00
2018,09,30,06,57,12.00
2018,09,30,06,58,12.00
2018,09,30,06,59,12.00
2018,09,30,07,00,12.00
2018,09,30,07,01,12.00
2018,09,30,07,02,12.00
2018,09,30,07,03,12.00
2018,09,30,07,04,12.00
2018,09,30,07,05,12.00
2018,09,30,07,06,12.00
2018,09,30,07,07,12.00
2018,09,30,07,08,12.00
2018,09,30,07,09,12.00
2018,09,30,07,10,12.00
2018,09,30,07,11,12.00
2018,09,30,07,12,12.00
2018,09,30,07,13,12.00
2018,09,30,07,14,12.00
2018,09,30,07,15,12.10
2018,09,30,07,16,12.10
2018,09,30,07,17,12.10
2018,09,30,07,18,12.10
2018,09,30,07,19,12.10
2018,09,30,07,20,12.10
2018,09,30,07,21,12.10
2018,09,30,07,22,12.10
2018,09,30,07,23,12.10
2018,09,30,07,24,12.10
2018,09,30,07,25,12.10
2018,09,30,07,26,12.10
2018,09,30,07,27,12.10
2018,09,30,07,28,12.10
2018,09,30,07,29,12.10
2018,09,30,07,30,12.10
2018,09,30,07,31,12.10
2018,09,30,07,32,12.10
2018,09,30,07,33,12.10
2018,09,30,07,34,12.10
2018,09,30,07,35,12.10
2018,09,30,07,36,12.10
2018,09,30,07,37,12.10
2018,09,30,07,38,12.10
2018,09,30,07,39,12.10
2018,09,30,07,40,12.10
2018,09,30,07,41,12.10
2018,09,30,07,42,12.10
2018,09,30,07,43,12.10
2018,09,30,07,44,12.10
2018,09,30,07,45,12.10
2018,09,30,07,46,12.10
2018,09,30,07,47,12.10
2018,09,30,07,48,12.10
2018,09,30,07,49,12.10
2018,09,30,07,50,12.10
2018,09,30,07,51,12.10
2018,09,30,07,52,12.10
2018,09,30,07,53,12.10
2018,09,30,07,54,12.10
2018,09,30,07,55,12.10
2018,09,30,07,56,12.10
2018,09,30,07,57,12.10
2018,09,30,07,58,12.10
2018,09,30,07,59,12.10
2018,09,30,08,00,12.10
2018,09,30,08,01,12.10
2018,09,30,08,02,12.10
2018,09,30,08,03,12.10
2018,09,30,08,04,12.10
2018,09,30,08,05,12.10
2018,09,30,08,06,12.10
2018,09,30,08,07,12.10
2018,09,30,08,08,12.10
2018,09,30,08,09,12.10
2018,09,30,08,10,12.10
2018,09,30,08,11,12.10
2018,09,30,08,12,12.10
2018,09,30,08,13,12.10
2018,09,30,08,14,12.10
2018,09,30,08,15,12.10
2018,09,30,08,16,12.10
2018,09,30,08,17,12.10
2018,09,30,08,18,12.10
2018,09,30,08,19,12.00
2018,09,30,08,20,12.00
2018,09,30,08,21,12.00
2018,09,30,08,22,12.00
2018,09,30,08,23,12.00
2018,09,30,08,24,12.00
2018,09,30,08,25,12.00
2018,09,30,08,26,12.00
2018,09,30,08,27,12.00
2018,09,30,08,28,12.00
2018,09,30,08,29,12.00
2018,09,30,08,30,12.00
2018,09,30,08,31,12.00
2018,09,30,08,32,12.00
2018,09,30,08,33,12.00
2018,09,30,08,34,12.00
2018,09,30,08,35,12.00
2018,09,30,08,36,12.00
2018,09,30,08,37,12.00
2018,09,30,08,38,12.00
2018,09,30,08,39,12.10
2018,09,30,08,40,12.10
2018,09,30,08,41,12.10
2018,09,30,08,42,12.10
2018,09,30,08,43,12.10
2018,09,30,08,44,12.10
2018,09,30,08,45,12.10
2018,09,30,08,46,12.10
2018,09,30,08,47,12.10
2018,09,30,08,48,12.10
2018,09,30,08,49,12.10
2018,09,30,08,50,12.10
2018,09,30,08,51,12.10
2018,09,30,08,52,12.10
2018,09,30,08,53,12.10
2018,09,30,08,54,12.10
2018,09,30,08,55,12.10
2018,09,30,08,56,12.10
2018,09,30,08,57,12.10
2018,09,30,08,58,12.10
2018,09,30,09,14,12.10
2018,09,30,09,15,12.10
2018,09,30,09,16,12.10
2018,09,30,09,17,12.10
2018,09,30,09,18,12.10
2018,09,30,09,19,12.10
2018,09,30,09,20,12.10
2018,09,30,09,21,12.10
2018,09,30,09,22,12.10
2018,09,30,09,23,12.10
2018,09,30,09,24,12.10
2018,09,30,09,25,12.10
2018,09,30,09,26,12.10
2018,09,30,09,27,12.10
2018,09,30,09,28,12.10
2018,09,30,09,29,12.10
2018,09,30,09,30,12.10
2018,09,30,09,31,12.10
2018,09,30,09,32,12.10
2018,09,30,09,33,12.10
2018,09,30,09,34,12.10
2018,09,30,09,35,12.10
2018,09,30,09,36,12.10
2018,09,30,09,37,12.10
2018,09,30,09,38,12.10
2018,09,30,09,39,12.10
2018,09,30,09,40,12.10
2018,09,30,09,41,12.10
2018,09,30,09,42,12.10
2018,09,30,09,43,12.10
2018,09,30,09,44,12.10
2018,09,30,09,45,12.10
2018,09,30,09,46,12.10
2018,09,30,09,47,12.10
2018,09,30,09,48,12.10
2018,09,30,09,49,12.10
2018,09,30,09,50,12.10
2018,09,30,09,51,12.10
2018,09,30,09,52,12.20
2018,09,30,09,53,12.20
2018,09,30,09,54,12.20
2018,09,30,09,55,12.20
2018,09,30,09,56,12.20
2018,09,30,09,57,12.20
2018,09,30,09,58,12.20
2018,09,30,09,59,12.20
2018,09,30,10,00,12.20
2018,09,30,10,01,12.30
2018,09,30,10,02,12.30
2018,09,30,10,03,12.30
2018,09,30,10,04,12.30
2018,09,30,10,05,12.30
2018,09,30,10,06,12.30
2018,09,30,10,07,12.30
2018,09,30,10,08,12.30
2018,09,30,10,09,12.30
2018,09,30,10,10,12.30
2018,09,30,10,11,12.30
2018,09,30,10,12,12.30
2018,09,30,10,13,12.30
2018,09,30,10,14,12.30
2018,09,30,10,15,12.30
2018,09,30,10,16,12.30
2018,09,30,10,17,12.30
2018,09,30,10,18,12.30
2018,09,30,10,19,12.30
2018,09,30,10,20,12.30
2018,09,30,10,21,12.30
2018,09,30,10,22,12.30
2018,09,30,10,23,12.30
2018,09,30,10,24,12.30
2018,09,30,10,25,12.30
2018,09,30,10,26,12.30
2018,09,30,10,27,12.30
2018,09,30,10,28,12.30
2018,09,30,10,29,12.30
2018,09,30,10,30,12.30
2018,09,30,10,31,12.30
2018,09,30,10,32,12.30
2018,09,30,10,33,12.30
2018,09,30,10,34,12.30
2018,09,30,10,35,12.30
2018,09,30,10,36,12.30
2018,09,30,10,37,12.30
2018,09,30,10,38,12.30
2018,09,30,10,39,12.30
2018,09,30,10,40,12.30
2018,09,30,10,41,12.30
2018,09,30,10,42,12.30
2018,09,30,10,43,12.30
2018,09,30,10,44,12.30
2018,09,30,10,45,12.30
2018,09,30,10,46,12.30
2018,09,30,10,47,12.30
2018,09,30,10,48,12.30
2018,09,30,10,49,12.30
2018,09,30,10,50,12.30
2018,09,30,10,51,12.30
2018,09,30,10,52,12.30
2018,09,30,10,53,12.30
2018,09,30,10,54,12.30
2018,09,30,10,55,12.30
2018,09,30,10,56,12.30
2018,09,30,10,57,12.30
2018,09,30,10,58,12.30
2018,09,30,10,59,12.30
2018,09,30,11,00,12.30
2018,09,30,11,01,12.40
2018,09,30,11,02,12.40
2018,09,30,11,03,12.40
2018,09,30,11,04,12.40
2018,09,30,11,05,12.40
2018,09,30,11,06,12.50
2018,09,30,11,07,12.50
2018,09,30,11,08,12.50
2018,09,30,11,09,12.50
2018,09,30,11,10,12.50
2018,09,30,11,11,12.50
2018,09,30,11,12,12.50
2018,09,30,11,13,12.50
2018,09,30,11,14,12.50
2018,09,30,11,15,12.50
2018,09,30,11,16,12.50
2018,09,30,11,17,12.50
2018,09,30,11,18,12.50
2018,09,30,11,19,12.50
2018,09,30,11,20,12.50
2018,09,30,11,21,12.50
2018,09,30,11,22,12.50
2018,09,30,11,23,12.50
2018,09,30,11,24,12.60
2018,09,30,11,25,12.60
2018,09,30,11,26,12.60
2018,09,30,11,27,12.60
2018,09,30,11,28,12.60
2018,09,30,11,29,12.60
2018,09,30,11,30,12.70
2018,09,30,11,31,12.70
2018,09,30,11,32,12.70
2018,09,30,11,33,12.70
2018,09,30,11,34,12.60
2018,09,30,11,35,12.60
2018,09,30,11,36,12.60
2018,09,30,11,37,12.60
2018,09,30,11,38,12.60
2018,09,30,11,39,12.60
2018,09,30,11,40,12.60
2018,09,30,11,41,12.60
2018,09,30,11,42,12.60
2018,09,30,11,43,12.60
2018,09,30,11,44,12.60
2018,09,30,11,45,12.60
2018,09,30,11,46,12.70
2018,09,30,11,47,12.70
2018,09,30,11,48,12.70
2018,09,30,11,49,12.70
2018,09,30,11,50,12.70
2018,09,30,11,51,12.70
2018,09,30,11,52,12.70
2018,09,30,11,53,12.70
2018,09,30,11,54,12.70
2018,09,30,11,55,12.80
2018,09,30,11,56,12.80
2018,09,30,11,57,12.80
2018,09,30,11,58,12.80
2018,09,30,11,59,12.80
2018,09,30,12,00,12.80
2018,09,30,12,01,12.80
2018,09,30,12,02,12.80
2018,09,30,12,03,12.80
2018,09,30,12,04,12.80
2018,09,30,12,05,12.80
2018,09,30,12,06,12.80
2018,09,30,12,07,12.90
2018,09,30,12,08,12.90
2018,09,30,12,09,12.90
2018,09,30,12,10,12.90
2018,09,30,12,11,12.90
2018,09,30,12,12,12.90
2018,09,30,12,13,12.90
2018,09,30,12,14,12.90
2018,09,30,12,15,12.90
2018,09,30,12,16,12.90
2018,09,30,12,17,12.90
2018,09,30,12,18,12.90
2018,09,30,12,19,12.90
2018,09,30,12,20,13.00
2018,09,30,12,21,13.00
2018,09,30,12,22,13.00
2018,09,30,12,23,13.00
2018,09,30,12,24,13.10
2018,09,30,12,25,13.10
2018,09,30,12,26,13.00
2018,09,30,12,27,13.00
2018,09,30,12,28,13.00
2018,09,30,12,29,13.00
2018,09,30,12,30,13.10
2018,09,30,12,31,13.10
2018,09,30,12,32,13.10
2018,09,30,12,33,13.10
2018,09,30,12,34,13.10
2018,09,30,12,35,13.10
2018,09,30,12,36,13.10
2018,09,30,12,37,13.10
2018,09,30,12,38,13.10
2018,09,30,12,39,13.20
2018,09,30,12,40,13.10
2018,09,30,12,41,13.10
2018,09,30,12,42,13.20
2018,09,30,12,43,13.20
2018,09,30,12,44,13.20
2018,09,30,12,45,13.20
2018,09,30,12,46,13.20
2018,09,30,12,47,13.20
2018,09,30,12,48,13.20
2018,09,30,12,49,13.20
2018,09,30,12,50,13.20
2018,09,30,12,51,13.20
2018,09,30,12,52,13.20
2018,09,30,12,53,13.20
2018,09,30,12,54,13.20
2018,09,30,12,55,13.20
2018,09,30,12,56,13.20
2018,09,30,12,57,13.20
2018,09,30,12,58,13.20
2018,09,30,12,59,13.20
2018,09,30,13,00,13.20
2018,09,30,13,01,13.20
2018,09,30,13,02,13.20
2018,09,30,13,03,13.20
2018,09,30,13,04,13.20
2018,09,30,13,05,13.20
2018,09,30,13,06,13.30
2018,09,30,13,07,13.30
2018,09,30,13,08,13.30
2018,09,30,13,09,13.30
2018,09,30,13,10,13.30
2018,09,30,13,11,13.30
2018,09,30,13,12,13.30
2018,09,30,13,13,13.30
2018,09,30,13,14,13.30
2018,09,30,13,15,13.30
2018,09,30,13,16,13.30
2018,09,30,13,17,13.30
2018,09,30,13,18,13.30
2018,09,30,13,19,13.20
2018,09,30,13,20,13.20
2018,09,30,13,21,13.20
2018,09,30,13,22,13.20
2018,09,30,13,23,13.20
2018,09,30,13,24,13.20
2018,09,30,13,25,13.20
2018,09,30,13,26,13.20
2018,09,30,13,27,13.20
2018,09,30,13,28,13.20
2018,09,30,13,29,13.20
2018,09,30,13,30,13.30
2018,09,30,13,31,13.30
2018,09,30,13,32,13.30
2018,09,30,13,33,13.30
2018,09,30,13,34,13.30
2018,09,30,13,35,13.30
2018,09,30,13,36,13.30
2018,09,30,13,37,13.30
2018,09,30,13,38,13.40
2018,09,30,13,39,13.40
2018,09,30,13,40,13.40
2018,09,30,13,41,13.30
2018,09,30,13,42,13.30
2018,09,30,13,43,13.30
2018,09,30,13,44,13.30
2018,09,30,13,45,13.30
2018,09,30,13,46,13.40
2018,09,30,13,47,13.40
2018,09,30,13,48,13.40
2018,09,30,13,49,13.50
2018,09,30,13,50,13.50
2018,09,30,13,51,13.50
2018,09,30,13,52,13.50
2018,09,30,13,53,13.50
2018,09,30,13,54,13.50
2018,09,30,13,55,13.50
2018,09,30,13,56,13.40
2018,09,30,13,57,13.40
2018,09,30,13,58,13.40
2018,09,30,13,59,13.30
2018,09,30,14,00,13.30
2018,09,30,14,01,13.30
2018,09,30,14,02,13.30
2018,09,30,14,03,13.30
2018,09,30,14,04,13.30
2018,09,30,14,05,13.30
2018,09,30,14,06,13.30
2018,09,30,14,07,13.30
2018,09,30,14,08,13.30
2018,09,30,14,09,13.30
2018,09,30,14,10,13.30
2018,09,30,14,11,13.30
2018,09,30,14,12,13.30
2018,09,30,14,13,13.30
2018,09,30,14,14,13.30
2018,09,30,14,15,13.30
2018,09,30,14,16,13.30
2018,09,30,14,17,13.30
2018,09,30,14,18,13.40
2018,09,30,14,19,13.40
2018,09,30,14,20,13.50
2018,09,30,14,21,13.50
2018,09,30,14,22,13.50
2018,09,30,14,23,13.50
2018,09,30,14,24,13.50
2018,09,30,14,25,13.50
2018,09,30,14,26,13.50
2018,09,30,14,27,13.50
2018,09,30,14,28,13.50
2018,09,30,14,29,13.50
2018,09,30,14,30,13.60
2018,09,30,14,31,13.60
2018,09,30,14,32,13.60
2018,09,30,14,33,13.60
2018,09,30,14,34,13.60
2018,09,30,14,35,13.60
2018,09,30,14,36,13.60
2018,09,30,14,37,13.60
2018,09,30,14,38,13.70
2018,09,30,14,39,13.70
2018,09,30,14,40,13.70
2018,09,30,14,41,13.70
2018,09,30,14,42,13.70
2018,09,30,14,43,13.70
2018,09,30,14,44,13.70
2018,09,30,14,45,13.70
2018,09,30,14,46,13.70
2018,09,30,14,47,13.80
2018,09,30,14,48,13.80
2018,09,30,14,49,13.80
2018,09,30,14,50,13.80
2018,09,30,14,51,13.90
2018,09,30,14,52,13.90
2018,09,30,14,53,13.90
2018,09,30,14,54,13.90
2018,09,30,14,55,13.90
2018,09,30,14,56,13.90
2018,09,30,14,57,13.90
2018,09,30,14,58,13.90
2018,09,30,14,59,13.90
2018,09,30,15,00,13.80
2018,09,30,15,01,13.70
2018,09,30,15,02,13.70
2018,09,30,15,03,13.70
2018,09,30,15,04,13.70
2018,09,30,15,05,13.70
2018,09,30,15,06,13.70
2018,09,30,15,07,13.80
2018,09,30,15,08,13.80
2018,09,30,15,09,13.80
2018,09,30,15,10,13.90
2018,09,30,15,11,13.90
2018,09,30,15,12,13.90
2018,09,30,15,13,13.90
2018,09,30,15,14,13.90
2018,09,30,15,15,14.00
2018,09,30,15,16,14.00
2018,09,30,15,17,14.00
2018,09,30,15,18,14.00
2018,09,30,15,19,14.00
2018,09,30,15,20,14.00
2018,09,30,15,21,14.00
2018,09,30,15,22,14.00
2018,09,30,15,23,14.00
2018,09,30,15,24,14.00
2018,09,30,15,25,14.00
2018,09,30,15,26,14.00
2018,09,30,15,27,14.00
2018,09,30,15,28,14.00
2018,09,30,15,29,14.00
2018,09,30,15,30,14.00
2018,09,30,15,31,14.00
2018,09,30,15,32,14.00
2018,09,30,15,33,14.00
2018,09,30,15,34,14.00
2018,09,30,15,35,14.00
2018,09,30,15,36,14.00
2018,09,30,15,37,14.00
2018,09,30,15,38,14.00
2018,09,30,15,39,14.00
2018,09,30,15,40,14.00
2018,09,30,15,41,14.00
2018,09,30,15,42,14.00
2018,09,30,15,43,14.00
2018,09,30,15,44,14.00
2018,09,30,15,45,14.00
2018,09,30,15,46,14.00
2018,09,30,15,47,14.10
2018,09,30,15,48,14.00
2018,09,30,15,49,14.00
2018,09,30,15,50,14.00
2018,09,30,15,51,14.00
2018,09,30,15,52,14.00
2018,09,30,15,53,14.10
2018,09,30,15,54,14.10
2018,09,30,15,55,14.10
2018,09,30,15,56,14.10
2018,09,30,15,57,14.10
2018,09,30,15,58,14.10
2018,09,30,15,59,14.10
2018,09,30,16,00,14.10
2018,09,30,16,01,14.20
2018,09,30,16,02,14.20
2018,09,30,16,03,14.20
2018,09,30,16,04,14.20
2018,09,30,16,05,14.20
2018,09,30,16,06,14.20
2018,09,30,16,07,14.20
2018,09,30,16,08,14.20
2018,09,30,16,09,14.20
2018,09,30,16,10,14.20
2018,09,30,16,11,14.20
2018,09,30,16,12,14.20
2018,09,30,16,13,14.20
2018,09,30,16,14,14.20
2018,09,30,16,15,14.20
2018,09,30,16,16,14.20
2018,09,30,16,17,14.20
2018,09,30,16,18,14.20
2018,09,30,16,19,14.20
2018,09,30,16,20,14.20
2018,09,30,16,21,14.20
2018,09,30,16,22,14.20
2018,09,30,16,23,14.20
2018,09,30,16,24,14.20
2018,09,30,16,25,14.10
2018,09,30,16,26,14.10
2018,09,30,16,27,14.20
2018,09,30,16,28,14.20
2018,09,30,16,29,14.20
2018,09,30,16,30,14.20
2018,09,30,16,31,14.20
2018,09,30,16,32,14.20
2018,09,30,16,33,14.20
2018,09,30,16,34,14.20
2018,09,30,16,35,14.20
2018,09,30,16,36,14.20
2018,09,30,16,37,14.20
2018,09,30,16,38,14.20
2018,09,30,16,39,14.20
2018,09,30,16,40,14.20
2018,09,30,16,41,14.20
2018,09,30,16,42,14.20
2018,09,30,16,43,14.20
2018,09,30,16,44,14.20
2018,09,30,16,45,14.20
2018,09,30,16,46,14.20
2018,09,30,16,47,14.20
2018,09,30,16,48,14.20
2018,09,30,16,49,14.20
2018,09,30,16,50,14.20
2018,09,30,16,51,14.20
2018,09,30,16,52,14.30
2018,09,30,16,53,14.30
2018,09,30,16,54,14.30
2018,09,30,16,55,14.30
2018,09,30,16,56,14.40
2018,09,30,16,57,14.30
2018,09,30,16,58,14.20
2018,09,30,16,59,14.20
2018,09,30,17,00,14.20
2018,09,30,17,01,14.20
2018,09,30,17,02,14.20
2018,09,30,17,03,14.20
2018,09,30,17,04,14.20
2018,09,30,17,05,14.20
2018,09,30,17,06,14.20
2018,09,30,17,07,14.20
2018,09,30,17,08,14.20
2018,09,30,17,09,14.10
2018,09,30,17,10,14.00
2018,09,30,17,11,13.90
2018,09,30,17,12,13.90
2018,09,30,17,13,13.90
2018,09,30,17,14,13.90
2018,09,30,17,15,13.90
2018,09,30,17,16,13.90
2018,09,30,17,17,13.90
2018,09,30,17,18,14.00
2018,09,30,17,19,14.00
2018,09,30,17,20,13.90
2018,09,30,17,21,13.90
2018,09,30,17,22,13.90
2018,09,30,17,23,13.90
2018,09,30,17,24,14.00
2018,09,30,17,25,14.00
2018,09,30,17,26,14.00
2018,09,30,17,27,14.00
2018,09,30,17,28,14.00
2018,09,30,17,29,14.00
2018,09,30,17,30,14.10
2018,09,30,17,31,14.10
2018,09,30,17,32,14.10
2018,09,30,17,33,14.10
2018,09,30,17,34,14.10